sat.trackr.live / text

‹ back to catalog

STARLINK-11241 [DTC]

NORAD 60936 · 2024-155N

PAYLOAD ACTIVE UNKNOWN

§ Identity

Operator
Country
US
Launch date
2024-08-31
Launch site
AFWTR
Launch vehicle
Mass (kg)
RCS (m²)

Purposes: comms

External: N2YO · Heavens-Above · Gunter

§ Orbital elements

Epoch: 2026-09-21T21:13:20.820000Z

Period
91.74 min
Inclination
53.1594°
Eccentricity
0.0001043
Mean motion
15.69707381 rev/d
Perigee alt
359.0 km
Apogee alt
360.4 km
Semi-major
6,737.9 km
B*
-6.9066e-7
RAAN
94.3235°
Arg perigee
60.7623°
Mean anomaly
299.3499°
Rev number
11,921

§ Raw data

STARLINK-11241 [DTC]1 60936U 24155N   26264.88426875 -.00000672  00000+0 -69066-6 0  99982 60936  53.1594  94.3235 0001043  60.7623 299.3499 15.69707381119217

JSON: /api/v1/satellites/60936 · /tle

For live sub-satellite position, see the globe view (requires WebGL).

§ Visibility from observer

Set your observer location to see the next 7 days of passes ≥ 10°. The values pass through the URL so the page stays shareable.

No JS? Fill the form by hand. The geolocation button needs JavaScript.